Location: Marstown
(39.5056°N, 77.0820°W)
Time: 08:49:03
(UTC-04:00)

Tiangong 2 - Visible Passes

Search period start: 21 May 2018 00:00
Search period end: 31 May 2018 00:00
Orbit: 382 x 386 km, 42.8° (Epoch: 21 May)

Date Brightness Start Highest point End Pass type
(mag) Time Alt. Az. Time Alt. Az. Time Alt. Az.
21 May 1.7 21:29:53 10° SW 21:32:46 34° SSE 21:34:27 19° E visible
21 May 3.9 23:06:17 10° W 23:06:44 13° W 23:06:44 13° W visible
22 May 1.0 22:06:27 10° WSW 22:09:36 85° NNW 22:10:49 34° ENE visible
23 May 1.1 21:06:43 10° SW 21:09:49 59° SSE 21:12:56 10° ENE visible
23 May 2.0 22:43:33 10° W 22:46:37 47° N 22:46:39 47° N visible
24 May 1.6 21:43:37 10° W 21:46:44 60° NNW 21:49:52 10° ENE visible
24 May 3.4 23:20:41 10° WNW 23:22:06 23° WNW 23:22:06 23° WNW visible
25 May 2.2 22:20:47 10° WNW 22:23:48 43° N 22:25:09 26° NE visible
26 May 2.0 21:20:50 10° W 21:23:54 47° N 21:26:58 10° ENE visible
26 May 2.3 22:57:48 10° WNW 23:00:14 42° NW 23:00:14 42° NW visible
27 May 2.1 21:57:56 10° WNW 22:00:58 44° N 22:03:02 18° ENE visible
27 May 4.0 23:34:41 10° WNW 23:35:13 14° WNW 23:35:13 14° WNW visible
28 May 2.2 20:58:00 10° WNW 21:01:02 43° N 21:04:04 10° ENE visible
28 May 1.2 22:34:51 10° WNW 22:37:58 70° N 22:37:58 70° N visible
29 May 1.7 21:35:01 10° WNW 21:38:06 52° N 21:40:42 13° E visible
29 May 3.4 23:11:47 10° W 23:12:53 19° W 23:12:53 19° W visible
30 May 0.9 22:11:52 10° WNW 22:15:01 78° SSW 22:15:36 55° SE visible
